Temperature
26 26 26 27 28 28 29 29 30 31 33 32 32 31 32 32 32 31 31 31 30 29 27 24 22 20 19 19 19 19 19 19 18 18 17 17 17 16 16 16 16 16 16 15
26 26 28 29 30 29 29 29 29 30 32 31 31 31 31 32 31 31 31 31 30 29 26 22 21 19 18 18 18 18 19 18 18 17 17 16 16 15 15 15 15 15 14 14
26 28 29 29 29 29 29 29 29 29 30 31 30 30 30 31 31 31 31 30 30 29 26 22 20 19 19 18 17 18 18 18 17 17 16 16 15 15 15 14 14 14 14 14
27 28 29 29 28 29 28 29 29 29 28 28 29 28 29 30 30 31 31 31 30 29 27 23 20 19 19 18 17 17 17 17 16 16 16 16 15 14 14 13 13 13 13 13
27 29 29 28 28 29 28 29 29 28 28 27 28 27 28 30 30 31 31 31 30 29 27 23 20 18 18 18 17 17 16 16 16 15 15 15 14 13 13 12 12 12 11 11
28 30 30 29 30 29 29 28 28 28 27 26 27 27 27 29 30 31 31 31 30 29 25 21 18 17 17 17 16 16 16 15 15 14 14 14 13 13 12 12 12 11 11 10
27 28 30 30 28 29 28 26 25 25 25 25 27 27 28 30 31 31 31 29 28 26 21 18 17 16 16 16 15 15 14 14 14 13 13 13 13 13 12 12 11 11 10 9
26 27 28 29 28 27 27 26 24 24 25 26 28 28 29 31 31 30 28 24 22 20 17 16 15 15 15 15 14 14 13 13 12 12 12 13 12 12 11 11 10 10 10 9
27 27 30 30 29 28 27 27 27 26 25 25 26 28 29 30 30 30 27 21 18 16 15 15 14 14 14 14 14 13 12 12 11 12 12 12 11 11 11 11 10 9 9 8
27 26 28 30 30 29 28 28 27 26 24 23 25 26 28 29 29 29 24 18 15 14 14 13 13 13 13 13 12 12 11 11 11 11 11 11 11 11 10 9 9 8 7 7
26 25 26 28 27 27 27 27 26 26 26 24 24 26 28 28 28 25 21 17 15 14 13 12 12 12 12 12 12 11 11 11 11 10 10 10 10 9 8 7 7 7 7 6
25 25 24 26 28 29 28 27 27 25 24 25 24 25 28 27 27 25 22 17 15 13 12 12 11 11 11 11 11 11 10 10 10 10 9 9 8 8 7 7 7 7 6 6
23 23 22 23 25 27 27 27 27 26 25 25 24 25 26 25 22 19 17 15 14 12 11 11 10 11 11 11 10 10 10 9 9 8 8 8 7 7 7 7 7 6 6 6
21 22 22 22 24 24 25 25 26 26 25 24 25 25 24 22 20 16 15 14 12 11 10 10 10 11 11 11 10 9 9 9 8 8 7 7 7 7 7 7 6 6 6 6
22 21 22 23 25 25 24 24 23 23 24 24 24 24 23 21 19 16 14 13 11 10 9 9 10 10 10 10 9 9 8 8 8 8 7 7 7 7 7 6 6 6 6 6
21 20 21 21 23 24 24 24 24 24 24 24 24 23 21 19 17 15 14 12 11 10 9 9 9 9 9 9 8 8 7 7 7 7 7 7 7 7 6 6 6 6 5 5
20 19 19 19 22 22 22 23 24 24 24 23 22 20 19 18 16 14 14 13 11 10 9 8 8 8 8 7 7 6 6 6 6 6 6 6 6 6 6 6 6 5 5 4
18 18 18 19 19 18 21 23 22 22 21 21 20 19 18 16 14 12 12 12 10 9 8 8 7 7 7 6 6 5 5 5 5 5 5 5 6 6 6 5 5 4 4 3
19 18 17 17 18 19 21 21 20 20 19 18 18 18 17 16 15 10 10 10 9 8 7 7 6 6 6 5 5 5 5 5 5 5 5 5 6 5 5 4 4 3 3 2
18 18 17 17 16 17 18 18 19 19 17 16 16 16 16 16 16 10 8 8 8 7 7 6 5 5 5 5 5 5 5 5 5 5 5 5 5 5 4 4 3 2 2 2
16 16 16 16 16 18 16 18 18 17 15 15 15 15 15 14 11 8 7 6 6 6 5 5 5 5 5 5 5 5 5 5 5 5 5 5 4 4 4 3 2 2 2 1
16 15 15 15 15 15 16 17 16 15 15 15 14 14 12 10 8 7 6 5 5 5 4 4 4 4 5 5 5 5 5 6 5 5 5 4 4 3 3 2 2 2 1 1
16 16 15 14 13 14 15 15 15 14 14 13 13 12 10 8 7 6 5 5 4 4 4 4 5 5 5 5 5 5 5 5 5 5 4 4 3 2 2 2 1 1 1 0
15 16 15 15 16 16 15 14 13 13 12 12 12 10 9 7 6 5 5 4 4 5 5 5 5 5 6 6 6 6 5 5 5 4 4 4 3 2 2 1 1 1 0 -0
14 14 14 14 15 15 14 12 11 11 11 10 9 8 7 6 5 5 5 5 5 6 6 6 6 6 6 6 6 5 5 5 5 5 4 4 3 2 2 1 1 0 0 -0
14 13 13 13 13 12 11 10 10 9 8 8 7 6 6 6 5 5 6 6 6 6 6 7 7 6 6 6 6 5 5 5 5 5 4 4 3 2 2 1 1 0 0 -0
Wind_Speed
17 16 18 19 22 21 22 23 22 19 19 22 22 19 15 14 12 15 14 13 12 13 15 21 19 17 14 10 8 8 10 12 11 10 9 9 8 8 8 8 12 13 12 11
18 21 21 20 20 21 22 22 22 18 17 14 12 15 15 16 18 15 16 15 12 12 17 21 19 17 15 12 9 7 8 10 10 9 8 7 8 8 9 8 9 11 10 9
24 21 22 21 20 19 19 18 17 17 18 19 19 19 16 16 22 22 17 17 18 12 19 23 21 17 15 13 10 8 8 8 9 11 10 10 9 9 8 8 6 6 8 9
21 23 17 13 15 16 15 14 15 17 17 17 19 19 18 20 24 24 24 21 19 17 16 22 21 17 14 12 10 8 8 8 10 11 12 12 10 8 8 7 6 6 7 7
20 21 19 18 16 15 15 14 15 16 16 18 18 20 20 19 19 18 19 20 19 17 15 20 19 15 12 12 10 10 10 9 8 8 10 9 8 8 6 7 6 5 7 6
21 19 18 17 16 15 13 14 14 14 14 18 19 21 21 19 20 18 17 15 16 16 16 20 18 15 12 10 11 11 10 9 8 9 8 9 9 8 8 6 6 4 6 6
23 21 18 13 13 14 13 12 11 13 15 19 21 21 20 18 18 14 7 2 1 15 21 20 19 16 12 11 12 12 12 10 9 9 9 9 8 8 7 5 4 0 3 8
21 20 21 19 16 14 14 14 13 13 14 14 13 12 12 9 4 1 5 15 20 20 19 18 17 16 14 13 13 13 12 12 10 9 8 7 5 5 6 5 4 4 5 7
18 18 20 24 20 18 17 15 16 16 18 17 15 18 16 10 9 8 7 17 19 19 18 18 17 16 15 13 11 12 13 11 10 9 7 6 7 9 9 5 3 5 4 4
13 13 13 12 15 18 17 16 12 15 14 15 16 16 12 11 7 5 11 17 16 17 17 17 16 15 13 11 10 11 11 11 10 8 6 7 7 7 5 5 7 5 4 5
6 8 14 10 12 15 16 18 16 13 12 14 15 11 4 5 5 6 13 14 13 15 15 15 14 14 12 10 10 11 13 11 9 7 7 7 6 5 4 4 5 4 3 1
8 9 14 16 15 15 16 17 16 14 15 16 16 14 6 7 9 4 12 18 15 13 13 13 14 12 11 11 11 11 11 10 8 7 7 6 5 4 4 5 5 4 2 1
9 6 11 15 15 16 17 16 15 13 11 13 14 8 11 13 17 18 17 13 12 13 13 12 10 8 9 11 10 10 9 9 9 8 7 6 5 4 4 5 5 3 1 3
6 7 12 15 10 8 11 10 13 16 14 13 14 11 8 9 10 13 14 11 10 12 13 13 9 5 5 8 10 10 8 7 7 6 6 5 3 4 4 4 4 2 4 5
5 11 15 18 19 14 12 7 7 11 12 12 11 10 5 2 5 12 14 13 12 12 13 12 10 5 8 11 11 11 9 7 4 2 3 4 3 4 3 3 3 4 5 6
6 8 13 16 18 17 17 16 13 14 14 13 14 9 16 15 11 10 13 14 13 13 14 13 9 8 11 12 12 10 8 5 4 4 3 3 3 3 3 2 2 4 6 7
5 5 9 14 16 16 19 19 17 14 11 9 8 11 14 16 17 14 6 11 14 14 15 14 12 12 13 12 12 11 9 8 8 9 9 6 4 2 2 4 7 8 7 7
6 8 7 11 14 17 14 6 5 5 7 10 9 12 13 13 15 16 12 7 11 13 14 14 14 14 13 13 12 10 8 7 6 4 4 4 2 2 5 8 8 8 7 7
7 7 9 11 15 17 14 4 5 3 7 12 10 11 11 9 6 13 14 10 11 13 14 14 13 14 13 11 9 7 4 2 4 5 4 1 4 6 8 8 8 7 6 5
7 8 10 12 13 13 4 7 5 3 3 9 9 10 10 10 5 4 8 12 15 15 14 14 13 12 10 6 4 3 3 3 2 2 4 6 7 6 6 7 5 5 4 5
9 10 12 13 14 9 7 4 6 4 4 7 8 8 7 5 7 8 10 12 14 15 14 13 11 8 6 4 3 3 3 3 4 5 6 8 7 5 7 5 4 4 5 5
5 5 8 9 11 4 10 7 7 7 6 8 9 8 7 11 12 12 12 13 14 14 12 10 8 6 4 4 4 4 4 4 5 6 8 8 7 8 7 5 5 5 6 6
5 5 4 3 2 3 5 6 8 9 9 10 9 6 11 13 12 13 12 13 13 12 9 7 7 6 6 6 4 5 5 5 7 7 6 6 7 7 7 6 6 6 6 7
4 6 8 8 4 3 5 7 9 9 8 7 6 8 14 15 14 14 13 12 11 9 8 8 8 7 5 5 7 6 6 7 7 5 3 6 7 6 6 5 6 6 7 7
7 5 7 10 11 10 6 10 9 8 7 8 9 12 15 17 16 15 13 11 10 10 10 9 6 7 9 9 8 7 6 5 4 4 3 7 7 6 4 4 5 6 6 6
5 6 7 8 8 6 5 6 7 8 10 11 14 15 15 15 16 14 12 11 10 9 8 7 9 10 10 9 8 8 7 7 6 4 4 5 5 5 4 4 3 4 4 5
Wind_Direction
210 223 226 224 223 237 252 263 269 267 245 246 232 233 246 255 222 217 226 233 223 190 168 141 146 149 151 159 185 187 171 155 149 144 146 140 129 119 111 102 92 83 81 74
216 224 234 239 237 232 241 256 267 277 286 284 265 234 239 263 269 245 226 236 246 195 156 143 149 152 158 169 186 193 160 148 149 143 137 134 127 114 103 95 95 95 90 81
225 230 224 234 249 250 248 254 263 271 278 275 275 263 249 254 265 265 240 229 244 227 169 154 156 158 162 168 172 181 158 160 148 132 126 113 103 111 117 121 112 109 103 92
228 239 241 229 241 248 252 254 261 268 272 271 271 271 253 243 245 247 244 234 231 237 195 162 157 160 160 152 157 159 147 134 127 129 133 139 148 144 134 134 133 131 100 80
228 232 238 240 240 245 249 255 258 259 259 263 266 271 270 265 255 252 248 227 225 231 202 161 153 150 132 127 134 134 124 120 124 121 132 138 120 116 124 121 134 143 120 100
244 242 234 238 239 235 247 258 259 262 264 259 256 259 265 261 262 261 256 220 219 216 158 144 139 133 119 120 128 126 117 108 100 97 94 98 105 119 124 127 142 176 142 127
240 245 249 237 239 232 225 241 246 241 240 249 249 250 256 256 262 269 286 68 118 139 131 133 136 138 130 124 127 124 120 112 103 98 93 96 104 114 123 137 126 335 124 119
231 230 230 228 221 239 220 224 242 258 264 272 278 273 268 254 255 291 72 91 97 111 121 128 135 138 134 126 127 128 123 118 114 106 99 102 134 163 125 72 95 94 71 97
244 239 226 214 210 221 241 234 237 252 266 277 282 288 290 261 226 205 142 108 110 116 122 128 132 132 129 126 126 124 121 120 116 104 99 93 70 73 94 97 60 93 91 116
262 279 282 209 202 209 228 246 250 246 261 274 280 281 291 320 252 191 117 113 120 126 131 133 134 129 123 119 111 114 114 108 106 113 116 106 94 93 107 103 72 67 79 81
287 279 277 259 210 227 223 230 242 259 262 267 276 287 5 356 31 97 121 124 141 143 139 137 135 128 125 120 112 107 102 97 93 91 92 104 112 122 132 119 119 107 83 123
268 267 267 267 266 261 251 239 236 240 250 261 270 281 29 14 10 14 147 144 146 139 132 128 130 133 135 128 120 112 111 114 115 115 111 111 124 150 164 130 110 119 121 307
321 252 253 261 262 268 264 248 248 256 252 252 260 275 64 36 40 61 90 109 125 127 123 123 129 134 135 134 131 127 122 126 134 137 138 143 157 158 142 118 101 73 17 310
320 276 259 260 272 302 294 277 277 265 250 251 261 287 43 34 65 90 95 98 116 128 131 136 136 119 110 125 121 113 106 105 114 127 132 148 153 135 121 98 85 24 347 329
267 268 265 270 275 271 274 279 296 293 281 280 297 316 4 130 127 127 122 128 135 139 140 144 143 129 103 96 91 85 76 69 73 114 141 139 126 115 99 72 37 10 1 359
225 277 287 281 276 276 275 272 260 260 274 289 295 342 50 54 67 113 135 146 151 150 144 141 134 113 98 91 87 80 70 49 12 17 49 77 59 59 67 52 37 41 32 19
320 295 278 276 282 282 270 276 289 290 307 333 357 39 38 46 48 47 81 152 158 155 146 133 110 97 88 81 76 67 49 31 31 27 18 12 2 21 42 36 46 43 31 24
300 309 301 283 279 267 273 303 355 334 5 15 25 38 43 46 63 51 43 104 143 143 132 118 111 100 91 84 76 67 55 44 38 10 314 306 312 80 58 51 45 36 29 23
239 262 270 273 267 264 266 34 32 15 63 36 25 17 15 10 90 56 43 71 107 113 113 112 108 104 98 95 97 103 118 172 214 231 234 88 48 47 53 49 41 37 16 9
229 231 245 254 263 265 41 47 15 297 123 36 20 5 354 343 321 67 65 89 99 106 111 112 109 109 112 122 140 164 199 209 201 128 89 67 47 34 55 57 37 13 353 358
231 234 237 246 252 257 54 339 296 282 57 18 8 359 352 37 70 103 101 102 109 113 113 114 116 118 130 152 161 150 133 126 127 113 89 67 36 23 69 53 26 9 5 1
277 267 260 259 253 240 30 0 20 20 7 12 8 10 73 98 101 106 109 113 115 115 117 120 122 132 168 191 183 150 134 129 110 92 78 65 46 30 40 45 37 33 12 12
277 296 319 324 342 18 7 9 18 17 16 11 360 49 111 115 114 114 115 116 117 120 127 138 152 171 197 207 185 118 107 100 89 77 78 82 73 63 42 35 30 29 27 28
318 328 301 295 272 299 6 25 32 29 22 18 41 104 121 120 120 119 119 122 126 137 157 174 182 186 177 142 111 97 93 86 81 71 78 116 98 80 56 31 31 36 35 29
309 302 287 281 292 306 34 40 32 36 50 69 86 105 118 121 122 123 128 140 153 169 184 190 182 133 110 104 105 102 94 89 104 100 65 101 94 77 56 52 49 44 64 57
315 330 309 300 336 338 348 31 50 73 84 95 102 105 112 121 127 134 149 161 166 169 168 149 124 115 116 114 102 86 69 50 27 60 66 85 85 65 41 35 92 106 94 144
Height
1479 1481 1478 1473 1470 1470 1468 1466 1462 1454 1446 1448 1451 1455 1455 1458 1460 1465 1468 1471 1473 1477 1482 1484 1489 1495 1501 1505 1509 1511 1512 1514 1518 1521 1525 1528 1530 1531 1533 1535 1536 1538 1539 1540
1475 1475 1467 1463 1460 1461 1464 1467 1464 1455 1447 1448 1451 1454 1455 1458 1460 1461 1464 1467 1470 1473 1478 1481 1487 1493 1499 1504 1509 1511 1512 1513 1515 1518 1521 1525 1528 1529 1530 1531 1533 1535 1536 1537
1469 1461 1457 1459 1460 1460 1460 1462 1462 1461 1454 1451 1456 1459 1456 1457 1459 1457 1458 1462 1467 1470 1472 1476 1483 1489 1497 1503 1508 1511 1511 1513 1515 1515 1518 1521 1524 1525 1528 1530 1531 1532 1533 1534
1460 1455 1451 1455 1458 1457 1463 1457 1459 1462 1466 1466 1462 1471 1457 1452 1451 1450 1452 1455 1459 1465 1468 1471 1478 1486 1494 1500 1506 1509 1510 1511 1512 1513 1515 1519 1522 1524 1526 1528 1529 1530 1531 1532
1453 1449 1450 1454 1454 1454 1457 1454 1456 1459 1464 1468 1465 1471 1460 1447 1445 1443 1441 1444 1451 1456 1462 1468 1475 1483 1490 1497 1502 1506 1508 1509 1511 1512 1514 1517 1519 1521 1525 1527 1529 1530 1530 1530
1445 1441 1442 1445 1446 1449 1452 1456 1457 1459 1463 1476 1466 1469 1462 1445 1439 1436 1433 1437 1443 1448 1456 1465 1473 1481 1487 1494 1499 1503 1505 1508 1510 1511 1513 1514 1517 1519 1522 1525 1528 1529 1529 1528
1447 1441 1437 1439 1446 1447 1452 1466 1478 1480 1479 1474 1454 1457 1450 1434 1430 1431 1432 1436 1439 1444 1454 1463 1471 1478 1486 1492 1497 1500 1503 1506 1508 1510 1511 1513 1516 1519 1521 1523 1525 1527 1528 1526
1449 1448 1437 1436 1444 1450 1450 1460 1478 1485 1476 1459 1443 1446 1434 1424 1427 1431 1435 1440 1444 1451 1458 1465 1472 1478 1485 1491 1495 1499 1502 1505 1508 1510 1511 1514 1517 1519 1520 1521 1523 1525 1526 1524
1439 1437 1422 1425 1432 1441 1450 1451 1451 1463 1465 1468 1457 1443 1430 1424 1426 1430 1437 1445 1450 1456 1461 1468 1474 1479 1486 1491 1495 1498 1501 1505 1508 1511 1513 1515 1516 1517 1518 1520 1522 1523 1524 1525
1433 1439 1426 1420 1426 1432 1439 1444 1451 1459 1473 1477 1463 1450 1440 1427 1423 1428 1439 1450 1456 1460 1464 1469 1475 1480 1486 1491 1496 1499 1503 1506 1509 1511 1513 1514 1516 1517 1518 1519 1520 1521 1523 1523
1437 1446 1438 1428 1433 1439 1438 1443 1446 1448 1451 1465 1469 1454 1430 1431 1431 1436 1442 1451 1460 1464 1468 1471 1476 1481 1487 1492 1496 1499 1502 1506 1509 1511 1513 1514 1515 1516 1518 1519 1519 1520 1521 1522
1441 1446 1448 1438 1427 1424 1428 1433 1440 1456 1459 1456 1460 1454 1428 1431 1434 1436 1440 1452 1464 1470 1473 1476 1479 1484 1489 1493 1497 1500 1503 1505 1508 1510 1512 1513 1514 1516 1517 1518 1518 1519 1519 1520
1449 1450 1460 1455 1444 1433 1430 1428 1432 1437 1444 1451 1457 1451 1434 1439 1446 1449 1455 1464 1469 1471 1475 1479 1484 1488 1492 1496 1499 1502 1504 1506 1509 1510 1512 1513 1515 1516 1517 1518 1518 1518 1519 1519
1456 1455 1458 1460 1448 1442 1438 1434 1433 1436 1443 1447 1445 1442 1441 1446 1452 1459 1461 1468 1472 1475 1477 1480 1486 1490 1494 1497 1500 1502 1505 1508 1510 1512 1514 1515 1516 1517 1518 1518 1517 1517 1517 1517
1457 1459 1454 1448 1440 1438 1440 1441 1446 1447 1442 1444 1441 1441 1443 1448 1452 1459 1462 1469 1475 1479 1480 1483 1487 1491 1493 1496 1499 1502 1505 1508 1511 1514 1515 1516 1517 1517 1518 1517 1516 1516 1516 1516
1456 1461 1458 1453 1443 1439 1441 1438 1439 1441 1440 1439 1440 1446 1452 1457 1459 1463 1466 1471 1477 1480 1481 1485 1490 1493 1494 1496 1498 1502 1505 1508 1511 1514 1516 1518 1518 1519 1518 1517 1515 1514 1514 1514
1459 1463 1466 1463 1450 1447 1450 1442 1439 1438 1437 1442 1451 1460 1459 1462 1467 1471 1472 1475 1478 1479 1481 1486 1489 1491 1492 1495 1498 1501 1505 1508 1511 1513 1515 1516 1517 1518 1518 1517 1514 1512 1512 1510
1467 1470 1469 1466 1464 1470 1453 1440 1444 1446 1448 1452 1455 1461 1465 1470 1473 1476 1477 1477 1479 1481 1484 1486 1488 1490 1492 1495 1498 1502 1506 1509 1511 1514 1515 1516 1516 1517 1516 1515 1513 1512 1510 1509
1465 1471 1473 1472 1469 1460 1449 1450 1452 1456 1460 1464 1465 1467 1469 1472 1473 1478 1480 1480 1481 1482 1484 1486 1488 1490 1493 1497 1500 1504 1507 1510 1512 1513 1515 1516 1516 1516 1514 1513 1511 1510 1509 1507
1464 1468 1473 1472 1474 1472 1464 1462 1459 1462 1468 1473 1473 1473 1474 1472 1470 1483 1484 1483 1483 1484 1485 1488 1491 1494 1497 1500 1503 1505 1508 1510 1512 1513 1514 1515 1515 1515 1513 1512 1511 1509 1508 1507
1470 1469 1470 1470 1472 1464 1470 1465 1463 1470 1479 1476 1476 1476 1476 1478 1481 1485 1485 1486 1486 1488 1490 1492 1495 1498 1501 1503 1506 1508 1509 1511 1512 1513 1514 1514 1515 1515 1512 1511 1510 1509 1508 1506
1469 1470 1470 1468 1472 1475 1474 1468 1471 1476 1475 1475 1476 1478 1479 1481 1484 1486 1488 1489 1490 1492 1495 1497 1499 1502 1504 1507 1508 1510 1512 1513 1514 1514 1514 1514 1514 1514 1513 1511 1510 1509 1507 1505
1468 1468 1471 1475 1480 1477 1474 1474 1475 1475 1475 1477 1477 1479 1480 1483 1486 1488 1491 1492 1495 1497 1499 1502 1504 1506 1508 1509 1511 1513 1514 1515 1515 1515 1515 1515 1514 1514 1513 1511 1510 1508 1506 1504
1471 1471 1471 1471 1469 1472 1475 1475 1476 1477 1477 1478 1478 1480 1481 1484 1487 1490 1493 1496 1499 1501 1503 1505 1507 1509 1511 1513 1514 1515 1516 1516 1516 1516 1516 1515 1515 1514 1513 1512 1510 1508 1506 1504
1475 1476 1474 1473 1472 1471 1473 1476 1477 1477 1478 1478 1479 1481 1482 1484 1488 1492 1497 1500 1502 1504 1506 1508 1510 1513 1514 1515 1517 1518 1518 1518 1518 1517 1517 1516 1515 1515 1513 1512 1510 1508 1506 1504
1474 1476 1476 1474 1475 1476 1477 1478 1478 1478 1479 1481 1482 1483 1485 1487 1491 1496 1500 1503 1505 1507 1509 1512 1514 1515 1517 1518 1519 1519 1519 1519 1518 1518 1518 1517 1516 1515 1514 1512 1510 1508 1507 1505